Location: Baumgarten
(49.0970°N, 12.7493°E)
Time: 08:39:38
(UTC+00:00)

Cosmos 1727 Rocket - Pass Details

Date: 05 July 2020
Orbit: 961 x 996 km, 82.9° (Epoch: 04 August)

Event Time Altitude Azimuth Distance (km) Brightness Sun altitude
Rises 23:36:13 0° 347° (NNW) 3,672 8.4 -18.1°
Reaches altitude 10° 23:38:46 10° 343° (NNW) 2,725 7.4 -18.0°
Maximum altitude 23:44:48 54° 268° (W) 1,179 4.3 -17.9°
Enters shadow 23:48:03 27° 205° (SSW) 1,776 4.8 -17.8°
